This demonstration page uses our WeatherBlox Daily Observations layout. Learn more.

Left ArrowRight Arrow

38.20091, -84.87328

Hourly Observations for February 14, 2020

Temp ( °F °C ) Dew Point ( °F °C ) Humidity (%) Winds ( mph kmh ) Pressure ( in mb ) Visibility ( mi km ) Precip ( " mm )
12:53 am 00:53 Cloudy with Light Snow 22 -5.6 12 -11.1 66 66 WNW 12 19 30.37 1028 9 14 0.00 0.00
1:53 am 01:53 Cloudy 20 -6.7 11 -11.7 68 68 WNW 8 13 30.39 1029 10 16 0.00 0.00
2:40 am 02:40 Cloudy 20 -6.7 10 -12.2 65 65 NW 7 11 30.44 1031 10 16 0.00 0.00
2:53 am 02:53 Cloudy 20 -6.7 11 -11.7 68 68 WNW 8 13 30.41 1030 10 16 0.00 0.00
3:53 am 03:53 Cloudy 20 -6.7 10 -12.2 65 65 WNW 8 13 30.42 1030 10 16 0.00 0.00
4:53 am 04:53 Cloudy 19 -7.2 9 -12.8 65 65 NW 6 9 30.44 1031 9 14 0.00 0.00
5:48 am 05:48 Cloudy with Light Snow 18 -8 10 -12 73 73 NNW 9 15 30.50 1033 3 4 0.00 0.00
5:53 am 05:53 Cloudy with Light Snow 18 -7.8 11 -11.7 74 74 NW 6 9 30.46 1032 3 5 0.00 0.00
6:53 am 06:53 Cloudy 18 -7.8 8 -13.3 65 65 WNW 6 9 30.49 1033 10 16 0.00 0.00
7:53 am 07:53 Cloudy 17 -8.3 9 -12.8 70 70 N 7 11 30.51 1033 10 16 0.00 0.00
8:53 am 08:53 Cloudy 17 -8.3 8 -13.3 68 68 N 8 13 30.55 1035 8 13 0.00 0.00
9:53 am 09:53 Cloudy 17 -8.3 7 -13.9 64 64 NNW 9 15 30.57 1035 10 16 0.00 0.00
10:53 am 10:53 Cloudy 17 -8.3 7 -13.9 64 64 WNW 8 13 30.59 1036 10 16 0.00 0.00
11:26 am 11:26 Partly Cloudy 18 -7.8 6 -14.4 59 59 VRB 6 9 30.63 1037 10 16 0.00 0.00
11:53 am 11:53 Mostly Sunny 20 -6.7 7 -13.9 57 57 Calm 30.59 1036 10 16 0.00 0.00
12:53 pm 12:53 Sunny 23 -5 9 -12.8 55 55 Calm 30.58 1036 10 16 0.00 0.00
1:53 pm 13:53 Partly Cloudy 24 -4.4 9 -12.8 52 52 SW 5 7 30.57 1035 10 16 0.00 0.00
2:53 pm 14:53 Mostly Sunny 25 -3.9 10 -12.2 53 53 Calm 30.55 1034 10 16 0.00 0.00
3:53 pm 15:53 Sunny 27 -2.8 9 -12.8 46 46 VRB 3 6 30.54 1034 10 16 0.00 0.00
4:53 pm 16:53 Sunny 28 -2.2 9 -12.8 44 44 Calm 30.54 1034 10 16 0.00 0.00
5:53 pm 17:53 Sunny 26 -3.3 8 -13.3 46 46 NW 5 7 30.55 1034 10 16 0.00 0.00
6:53 pm 18:53 Clear 23 -5 9 -12.8 55 55 NW 5 7 30.55 1035 10 16 0.00 0.00
7:53 pm 19:53 Clear 21 -6.1 10 -12.2 62 62 WNW 3 6 30.57 1035 10 16 0.00 0.00
8:53 pm 20:53 Clear 18 -7.8 11 -11.7 74 74 Calm 30.57 1035 10 16 0.00 0.00
9:53 pm 21:53 Clear 19 -7.2 10 -12.2 68 68 ESE 5 7 30.55 1035 10 16 0.00 0.00
10:53 pm 22:53 Clear 20 -6.7 11 -11.7 68 68 E 3 6 30.56 1035 10 16 0.00 0.00
11:53 pm 23:53 Clear 19 -7.2 11 -11.7 71 71 ESE 5 7 30.53 1034 10 16 0.00 0.00

Powered by AerisWeather